USCGC Eagle — NRCB — position and weather

sailwx.info

Track history (hours):
 
Tides and Currents Weather Stations Pressure Air Temp Water Temp Dewpoint Dewpoint Depression Visibility Wind Speed Wind Dir Waves Ship Positions

USCGC Eagle (United States)

Training ship of US Coast Guard Academy, and only square-rigger in active service in the US armed services. Ex German ship Horst Wessel.

Ship's website: http://www.cga.edu/eagle/

Last reported at 2014-Aug-01 08:00 UTC. Time now 2014-Aug-02 00:28 UTC.
Position N 43°42' W 069°01'.

CURRENTLY 10 NM SW OF MATINICUS ISLAND. CRS 240 DEG, SPD 3.6 KTS

Date/timePositionNaut miles runAvg speedWind from/ knotsBaromVisibWave heightAir tempDewpointWater temp
2014-Aug-01 08:00N 43°42' W 069°01'9 2.2
2014-Aug-01 04:00N 43°39' W 068°50'41 3.4
2014-Jul-31 16:00N 43°28' W 069°44'9 2.3
2014-Jul-31 12:00N 43°23' W 069°55'29 2.4
2014-Jul-31 00:00N 42°57' W 069°36'5 1.1
2014-Jul-30 20:00N 42°53' W 069°34'22 2.8
2014-Jul-30 12:00N 42°31' W 069°30'15 1.8
2014-Jul-30 04:00N 42°16' W 069°31'61 3.0
2014-Jul-29 08:00N 41°20' W 070°03'41 3.5
2014-Jul-28 20:16N 41°22' W 070°58'4 6.3
2014-Jul-28 19:33N 41°22' W 071°04'  
2014-Jul-24 11:33N 41°17' W 071°10'6 6.0
2014-Jul-24 10:33N 41°12' W 071°14'6 5.8
2014-Jul-24 09:33N 41°07' W 071°09'6 5.7
2014-Jul-24 08:33N 41°03' W 071°04'5 5.2
2014-Jul-24 07:33N 40°59' W 070°59'6 6.1
2014-Jul-24 06:33N 40°55' W 070°53'10 4.2
2014-Jul-24 04:08N 40°48' W 070°44'1 4.0
2014-Jul-24 04:00N 40°47' W 070°44'1 2.2
2014-Jul-24 03:33N 40°47' W 070°45'3 2.8
2014-Jul-24 02:33N 40°45' W 070°47'5 4.7
2014-Jul-24 01:33N 40°46' W 070°53'5 4.8
2014-Jul-24 00:33N 40°48' W 070°59'4 4.3
2014-Jul-23 23:33N 40°48' W 071°05'5 5.2
2014-Jul-23 22:33N 40°48' W 071°12'6 5.7
2014-Jul-23 21:33N 40°49' W 071°19'6 5.9
2014-Jul-23 20:33N 40°49' W 071°27'7 6.7
2014-Jul-23 19:33N 40°49' W 071°36'7 6.7
2014-Jul-23 18:33N 40°45' W 071°29'5 5.4
2014-Jul-23 17:33N 40°39' W 071°30'6 5.6
2014-Jul-23 16:33N 40°34' W 071°29'3 6.0
2014-Jul-23 16:00N 40°31' W 071°28'2 4.0
2014-Jul-23 15:33N 40°29' W 071°28'5 5.1
2014-Jul-23 14:33N 40°24' W 071°28'5 5.4
2014-Jul-23 13:33N 40°18' W 071°27'5 5.4
2014-Jul-23 12:33N 40°13' W 071°26'3 5.9
2014-Jul-23 12:00N 40°10' W 071°25'2 5.3
2014-Jul-23 11:33N 40°08' W 071°23'6 6.2
2014-Jul-23 10:33N 40°02' W 071°20'7 7.4
2014-Jul-23 09:33N 39°57' W 071°14'7 7.1
2014-Jul-23 08:33N 39°52' W 071°07'7 7.4
2014-Jul-23 07:33N 39°48' W 070°59'9 8.1
2014-Jul-23 06:28N 39°43' W 070°50'8 6.6
2014-Jul-23 05:11N 39°37' W 070°41'2 3.6
2014-Jul-23 04:30N 39°35' W 070°40'65127.8
2014-Jul-23 04:00N 39°50' W 072°02'67153.2
2014-Jul-23 03:33N 39°31' W 070°39'5 4.6
2014-Jul-23 02:33N 39°27' W 070°41'4 4.3
2014-Jul-23 01:33N 39°23' W 070°44'4 4.1
2014-Jul-23 00:32N 39°20' W 070°47'2 2.8
2014-Jul-23 00:00N 39°19' W 070°48'1 3.0
2014-Jul-22 23:33N 39°18' W 070°49'2 2.1
2014-Jul-22 22:25N 39°16' W 070°52'2 2.1
2014-Jul-22 21:23N 39°18' W 070°54'2 1.3
2014-Jul-22 19:37N 39°20' W 070°54'3 2.2
2014-Jul-22 18:25N 39°23' W 070°54'4 1.4
2014-Jul-22 15:17N 39°27' W 070°53'2 2.3
2014-Jul-22 14:30N 39°28' W 070°50'3 2.6
2014-Jul-22 13:22N 39°30' W 070°47'2 2.4
2014-Jul-22 12:31N 39°31' W 070°45'1 2.3
2014-Jul-22 12:00N 39°31' W 070°44'2 4.0
2014-Jul-22 11:30N 39°32' W 070°41'5 4.9
2014-Jul-22 10:33N 39°32' W 070°35'6 6.4
2014-Jul-22 09:33N 39°33' W 070°27'6 5.9
2014-Jul-22 08:33N 39°34' W 070°20'1 1.6
2014-Jul-22 08:00N 39°34' W 070°19'  
Track history (hours):
 
Tides and Currents Weather Stations Pressure Air Temp Water Temp Dewpoint Dewpoint Depression Visibility Wind Speed Wind Dir Waves Ship Positions

USCGC Eagle (United States)

Training ship of US Coast Guard Academy, and only square-rigger in active service in the US armed services. Ex German ship Horst Wessel.

Ship's website: http://www.cga.edu/eagle/

Last reported at 2014-Aug-01 08:00 UTC. Time now 2014-Aug-02 00:28 UTC.
Position N 43°42' W 069°01'.

CURRENTLY 10 NM SW OF MATINICUS ISLAND. CRS 240 DEG, SPD 3.6 KTS

Date/timePositionNaut miles runAvg speedWind from/ knotsBaromVisibWave heightAir tempDewpointWater temp
2014-Aug-01 08:00N 43°42' W 069°01'9 2.2
2014-Aug-01 04:00N 43°39' W 068°50'41 3.4
2014-Jul-31 16:00N 43°28' W 069°44'9 2.3
2014-Jul-31 12:00N 43°23' W 069°55'29 2.4
2014-Jul-31 00:00N 42°57' W 069°36'5 1.1
2014-Jul-30 20:00N 42°53' W 069°34'22 2.8
2014-Jul-30 12:00N 42°31' W 069°30'15 1.8
2014-Jul-30 04:00N 42°16' W 069°31'61 3.0
2014-Jul-29 08:00N 41°20' W 070°03'41 3.5
2014-Jul-28 20:16N 41°22' W 070°58'4 6.3
2014-Jul-28 19:33N 41°22' W 071°04'  
2014-Jul-24 11:33N 41°17' W 071°10'6 6.0
2014-Jul-24 10:33N 41°12' W 071°14'6 5.8
2014-Jul-24 09:33N 41°07' W 071°09'6 5.7
2014-Jul-24 08:33N 41°03' W 071°04'5 5.2
2014-Jul-24 07:33N 40°59' W 070°59'6 6.1
2014-Jul-24 06:33N 40°55' W 070°53'10 4.2
2014-Jul-24 04:08N 40°48' W 070°44'1 4.0
2014-Jul-24 04:00N 40°47' W 070°44'1 2.2
2014-Jul-24 03:33N 40°47' W 070°45'3 2.8
2014-Jul-24 02:33N 40°45' W 070°47'5 4.7
2014-Jul-24 01:33N 40°46' W 070°53'5 4.8
2014-Jul-24 00:33N 40°48' W 070°59'4 4.3
2014-Jul-23 23:33N 40°48' W 071°05'5 5.2
2014-Jul-23 22:33N 40°48' W 071°12'6 5.7
2014-Jul-23 21:33N 40°49' W 071°19'6 5.9
2014-Jul-23 20:33N 40°49' W 071°27'7 6.7
2014-Jul-23 19:33N 40°49' W 071°36'7 6.7
2014-Jul-23 18:33N 40°45' W 071°29'5 5.4
2014-Jul-23 17:33N 40°39' W 071°30'6 5.6
2014-Jul-23 16:33N 40°34' W 071°29'3 6.0
2014-Jul-23 16:00N 40°31' W 071°28'2 4.0
2014-Jul-23 15:33N 40°29' W 071°28'5 5.1
2014-Jul-23 14:33N 40°24' W 071°28'5 5.4
2014-Jul-23 13:33N 40°18' W 071°27'5 5.4
2014-Jul-23 12:33N 40°13' W 071°26'3 5.9
2014-Jul-23 12:00N 40°10' W 071°25'2 5.3
2014-Jul-23 11:33N 40°08' W 071°23'6 6.2
2014-Jul-23 10:33N 40°02' W 071°20'7 7.4
2014-Jul-23 09:33N 39°57' W 071°14'7 7.1
2014-Jul-23 08:33N 39°52' W 071°07'7 7.4
2014-Jul-23 07:33N 39°48' W 070°59'9 8.1
2014-Jul-23 06:28N 39°43' W 070°50'8 6.6
2014-Jul-23 05:11N 39°37' W 070°41'2 3.6
2014-Jul-23 04:30N 39°35' W 070°40'65127.8
2014-Jul-23 04:00N 39°50' W 072°02'67153.2
2014-Jul-23 03:33N 39°31' W 070°39'5 4.6
2014-Jul-23 02:33N 39°27' W 070°41'4 4.3
2014-Jul-23 01:33N 39°23' W 070°44'4 4.1
2014-Jul-23 00:32N 39°20' W 070°47'2 2.8
2014-Jul-23 00:00N 39°19' W 070°48'1 3.0
2014-Jul-22 23:33N 39°18' W 070°49'2 2.1
2014-Jul-22 22:25N 39°16' W 070°52'2 2.1
2014-Jul-22 21:23N 39°18' W 070°54'2 1.3
2014-Jul-22 19:37N 39°20' W 070°54'3 2.2
2014-Jul-22 18:25N 39°23' W 070°54'4 1.4
2014-Jul-22 15:17N 39°27' W 070°53'2 2.3
2014-Jul-22 14:30N 39°28' W 070°50'3 2.6
2014-Jul-22 13:22N 39°30' W 070°47'2 2.4
2014-Jul-22 12:31N 39°31' W 070°45'1 2.3
2014-Jul-22 12:00N 39°31' W 070°44'2 4.0
2014-Jul-22 11:30N 39°32' W 070°41'5 4.9
2014-Jul-22 10:33N 39°32' W 070°35'6 6.4
2014-Jul-22 09:33N 39°33' W 070°27'6 5.9
2014-Jul-22 08:33N 39°34' W 070°20'1 1.6
2014-Jul-22 08:00N 39°34' W 070°19'  

Dump ship's entire track history